DateTimeUTC,F1_A11,F1_S11,BsB_S11,BsG_S11,BsR_S11,BbsB_S11,BbsG_S11,BbsR_S11,BaB_A11,BaG_A11,BaR_A11,Tu_S11,T_S11,Uu_S11,U_S11,P_S11,T1_A11
2021-07-07T05:00:00Z,00000200,20000000,,,,,,,-000.22,-000.01,-000.14,19.3,26.0,03.3,02.2,0658.6,31.2
2021-07-07T05:01:00Z,00000200,20000000,,,,,,,0000.28,-000.02,0000.07,19.3,26.0,03.3,02.2,0658.6,31.2
2021-07-07T05:02:00Z,00000200,20000000,,,,,,,-000.23,-000.18,0000.04,19.2,26.0,03.3,02.2,0658.6,31.2
2021-07-07T05:03:00Z,00000200,60000000,,,,,,,0000.32,0000.27,-000.17,19.2,26.0,03.3,02.2,0658.6,31.1
2021-07-07T05:04:00Z,00000200,40000000,0001.11,0000.14,0000.54,-000.32,0000.05,0000.03,-000.15,-000.28,0000.39,19.2,25.7,03.3,02.2,0659.5,31.1
2021-07-07T05:05:00Z,00000200,00000000,0001.24,0000.31,0000.56,0000.18,0000.22,0000.53,0000.26,0000.46,-000.15,19.2,25.6,03.4,02.3,0659.5,31.1
2021-07-07T05:06:00Z,00000200,00000000,0000.62,0000.36,0000.14,0000.13,0000.34,0000.20,0000.21,0000.20,0000.40,19.2,25.6,03.5,02.4,0659.5,31.2
2021-07-07T05:07:00Z,00000200,00000000,0000.69,0000.18,0000.21,-000.16,0000.19,0000.32,0000.33,-000.23,-000.09,19.2,25.6,03.5,02.4,0659.6,31.2
2021-07-07T05:08:00Z,00000200,00000000,0000.61,0000.43,0000.18,-000.01,0000.32,-000.06,-000.10,0000.74,0000.42,19.3,25.7,03.6,02.4,0659.6,31.2
2021-07-07T05:09:00Z,00000200,00000000,0000.87,0000.37,0000.06,0000.05,0000.15,0000.02,0000.19,-000.10,-000.21,19.4,25.7,03.5,02.4,0659.6,31.2
2021-07-07T05:10:00Z,00000200,00000000,0000.18,0000.11,-000.14,0000.23,0000.08,-000.14,-000.27,-000.13,-000.02,19.5,25.7,03.3,02.2,0659.6,31.2
2021-07-07T05:11:00Z,00000200,00000000,0000.15,0000.02,0000.71,0000.09,0000.40,0000.11,0000.13,0000.12,-000.21,19.5,25.8,03.3,02.2,0659.6,31.2
2021-07-07T05:12:00Z,00000200,00000000,0000.07,0000.05,0000.06,0000.13,0000.40,-000.02,0000.02,-000.02,0000.26,19.5,25.8,03.3,02.3,0659.6,31.2
2021-07-07T05:13:00Z,00000200,00000000,0001.17,0000.05,0000.53,-000.11,0000.16,0000.24,0000.46,0000.20,0000.22,19.4,25.8,03.4,02.3,0659.6,31.2
2021-07-07T05:14:00Z,00000200,00000000,0001.38,0000.11,0000.47,-000.06,0000.51,0000.19,-000.28,-000.04,-000.22,19.4,25.7,03.4,02.3,0659.6,31.2
2021-07-07T05:15:00Z,00000200,00000000,0000.57,0000.60,0000.10,-000.11,0000.36,-000.25,0000.18,0000.03,0000.17,19.3,25.7,03.3,02.2,0659.6,31.2
2021-07-07T05:16:00Z,00000200,00000000,-000.07,0000.50,0000.13,-000.25,0000.05,-000.04,0000.02,0000.00,0000.11,19.2,25.7,03.3,02.3,0659.5,31.2
2021-07-07T05:17:00Z,00000200,00000000,0000.49,0000.21,0000.24,-000.02,0000.41,0000.14,0000.11,0000.27,-000.21,19.2,25.6,03.3,02.2,0659.5,31.2
2021-07-07T05:18:00Z,00000200,00000000,0000.71,-000.18,0000.06,0000.16,0000.16,0000.11,-000.01,-000.07,0000.25,19.1,25.6,03.3,02.2,0659.5,31.1
2021-07-07T05:19:00Z,00000200,00000000,0000.68,0000.22,0000.04,-000.21,0000.42,-000.15,0000.50,-000.16,0000.19,19.1,25.5,03.3,02.2,0659.5,31.1
2021-07-07T05:20:00Z,00000200,00000000,0000.79,0000.51,0000.32,-000.19,-000.16,0000.25,-000.40,0000.38,-000.20,19.0,25.5,03.3,02.2,0659.5,31.1
2021-07-07T05:21:00Z,00000200,00000000,0000.84,0000.33,0000.26,-000.00,0000.38,0000.29,0000.19,-000.50,0000.12,19.1,25.5,03.1,02.1,0659.5,31.1
2021-07-07T05:22:00Z,00000200,00000000,0000.67,0000.53,0000.17,0000.08,0000.15,-000.09,0000.11,0000.46,0000.15,19.1,25.5,03.1,02.1,0659.5,31.2
2021-07-07T05:23:00Z,00000200,00000000,0001.03,0000.27,0000.19,0000.01,0000.32,0000.21,-000.02,0000.21,0000.16,19.2,25.6,03.0,02.0,0659.5,31.2
2021-07-07T05:24:00Z,00000200,00000000,0001.38,0000.30,0000.06,0000.35,0000.39,-000.17,0000.19,0000.20,-000.23,19.3,25.6,03.1,02.1,0659.5,31.2
2021-07-07T05:25:00Z,00000200,00000000,0000.38,-000.02,0000.18,0000.02,0000.27,0000.04,0000.13,-000.16,0000.48,19.4,25.6,03.0,02.1,0659.5,31.2
2021-07-07T05:26:00Z,00000200,00000000,0000.52,-000.02,0000.23,0000.49,0000.06,0000.13,-000.27,0000.18,-000.30,19.5,25.7,03.1,02.1,0659.5,31.2
2021-07-07T05:27:00Z,00000200,00000000,0001.16,0000.34,0000.33,-000.09,0000.03,0000.02,0000.39,-000.14,0000.15,19.5,25.7,03.0,02.1,0659.5,31.2
2021-07-07T05:28:00Z,00000200,00000000,-000.11,0000.14,0000.24,0000.31,0000.11,-000.04,-000.06,0000.20,-000.05,19.6,25.8,02.9,02.0,0659.5,31.2
2021-07-07T05:29:00Z,00000200,00000000,0000.74,0000.51,0000.02,-000.16,0000.24,-000.03,-000.31,-000.03,-000.03,19.6,25.8,02.8,01.9,0659.5,31.2
2021-07-07T05:30:00Z,00000200,00000000,0000.57,0000.22,0000.27,-000.05,0000.35,0000.15,0000.22,0000.06,0000.05,19.5,25.8,02.7,01.9,0659.5,31.2
2021-07-07T05:31:00Z,00000200,00000000,0000.88,0000.25,0000.13,0000.01,0000.26,0000.31,0000.20,0000.06,0000.23,19.5,25.7,02.8,01.9,0659.5,31.2
2021-07-07T05:32:00Z,00000200,00000000,0001.33,0000.34,0000.25,-000.35,0000.28,0000.39,-000.12,0000.01,0000.02,19.4,25.7,02.7,01.8,0659.4,31.2
2021-07-07T05:33:00Z,00000200,00000000,0001.36,0000.41,-000.04,0000.07,0000.19,0000.18,0000.40,0000.01,-000.32,19.3,25.6,02.8,01.9,0659.4,31.2
2021-07-07T05:34:00Z,00000200,00000000,0000.80,0000.31,0000.03,-000.12,-000.14,0000.29,0000.03,0000.39,0000.46,19.3,25.6,02.9,02.0,0659.4,31.2
2021-07-07T05:35:00Z,00000200,00000000,0000.82,0000.08,0000.26,0000.06,0000.22,0000.31,0000.39,-000.17,-000.08,19.3,25.6,02.9,02.0,0659.4,31.2
2021-07-07T05:36:00Z,00000200,00000000,0000.28,0000.42,0000.28,-000.25,0000.17,0000.18,-000.10,0000.41,0000.30,19.3,25.6,02.9,02.0,0659.4,31.2
2021-07-07T05:37:00Z,00000200,00000000,0001.13,-000.05,0000.15,-000.09,0000.43,0000.08,0000.48,0000.24,0000.47,19.4,25.6,02.9,02.0,0659.4,31.2
2021-07-07T05:38:00Z,00000200,00000000,0000.32,0000.25,0000.31,0000.32,0000.17,0000.06,-000.55,0000.28,-000.72,19.4,25.7,02.9,02.0,0659.4,31.2
2021-07-07T05:39:00Z,00000200,00000000,0000.86,-000.01,0000.14,-000.05,0000.14,-000.05,0000.51,-000.30,0000.47,19.5,25.7,02.9,02.0,0659.4,31.2
2021-07-07T05:40:00Z,00000200,00000000,0000.33,0000.29,0000.08,-000.34,0000.26,0000.19,0000.19,0000.64,0000.68,19.5,25.7,02.9,02.0,0659.4,31.2
2021-07-07T05:41:00Z,00000200,00000000,0000.70,0000.33,-000.01,0000.43,-000.02,0000.03,0000.29,-000.22,-000.29,19.5,25.8,03.0,02.0,0659.5,31.2
2021-07-07T05:42:00Z,00000200,00000000,0000.55,0000.51,0000.13,-000.44,0000.31,-000.19,-000.16,-000.12,-000.41,19.5,25.7,02.9,02.0,0659.5,31.2
2021-07-07T05:43:00Z,00000200,00000000,0000.71,0000.25,0000.21,-000.45,-000.10,0000.06,-000.06,0000.11,0000.20,19.4,25.7,02.8,01.9,0659.5,31.2
2021-07-07T05:44:00Z,00000200,00000000,0000.41,0000.05,-000.12,0000.34,0000.25,-000.11,0000.03,0000.31,-000.02,19.3,25.7,02.9,01.9,0659.5,31.2
2021-07-07T05:45:00Z,00000200,00000000,0000.23,0000.53,0000.36,-000.11,0000.07,0000.10,0000.37,-000.07,0000.05,19.3,25.6,02.9,02.0,0659.4,31.1
2021-07-07T05:46:00Z,00000200,00000000,0000.33,0000.24,0000.31,0000.56,0000.52,0000.21,-000.21,0000.19,-000.01,19.2,25.6,03.1,02.1,0659.4,31.1
2021-07-07T05:47:00Z,00000200,00000000,0000.42,0000.37,-000.16,0000.28,0000.11,-000.08,0000.43,-000.14,0000.23,19.1,25.5,03.1,02.1,0659.4,31.1
2021-07-07T05:48:00Z,00000200,00000000,0000.96,0000.16,0000.51,0000.45,-000.09,0000.38,0000.01,0000.26,0000.30,19.1,25.5,03.1,02.1,0659.4,31.1
2021-07-07T05:49:00Z,00000200,00000000,0000.61,0000.27,0000.15,0000.54,0000.38,0000.23,0000.40,0000.30,0000.19,19.0,25.5,03.1,02.1,0659.3,31.1
2021-07-07T05:50:00Z,00000200,00000000,0000.42,0000.26,0000.23,-000.06,0000.04,0000.10,0000.02,0000.03,0000.02,19.0,25.4,03.1,02.1,0659.3,31.1
2021-07-07T05:51:00Z,00000200,00000000,0001.46,0000.36,-000.08,0000.50,0000.18,-000.07,-000.08,0000.32,0000.22,19.0,25.4,03.1,02.1,0659.3,31.1
2021-07-07T05:52:00Z,00000200,00000000,0000.37,0000.37,0000.01,0000.35,0000.24,-000.25,0000.08,-000.23,-000.18,19.1,25.5,03.1,02.1,0659.3,31.2
2021-07-07T05:53:00Z,00000200,00000000,0000.75,0000.14,-000.07,0000.05,0000.24,0000.33,0000.21,0000.11,0000.14,19.2,25.5,03.0,02.1,0659.3,31.2
2021-07-07T05:54:00Z,00000200,00000000,0000.38,0000.27,-000.25,0000.69,0000.20,-000.00,0000.15,0000.19,0000.37,19.3,25.5,02.9,02.0,0659.3,31.2
2021-07-07T05:55:00Z,00000200,00000000,0000.58,0000.03,0000.20,-000.26,0000.55,0000.11,0000.10,-000.25,-000.26,19.3,25.6,02.9,02.0,0659.3,31.2
2021-07-07T05:56:00Z,00000200,00000000,0000.73,-000.03,0000.17,-000.37,0000.20,0000.33,0000.01,0000.43,0000.32,19.4,25.6,02.9,02.0,0659.3,31.2
2021-07-07T05:57:00Z,00000200,40000000,,,,,,,0000.29,-000.08,-000.19,19.4,25.7,03.2,02.2,0659.2,31.2
2021-07-07T05:58:00Z,00000200,60000000,,,,,,,-000.23,-000.07,0000.09,19.1,25.8,03.0,02.0,0658.3,31.2
2021-07-07T05:59:00Z,00000200,20000000,,,,,,,0000.01,-000.27,-000.31,19.1,25.9,02.9,01.9,0658.3,31.2
